Time,TemperatureF,DewpointF,PressureIn,WindDirection,WindDirectionDegrees,WindSpeedMPH,WindSpeedGustMPH,Humidity,HourlyPrecipIn,Conditions,Clouds,dailyrainin,SolarRadiationWatts/m^2,SoftwareType,DateUTC
2013-02-11 00:00:00,58.1,56.4,29.95,SW,232,0.0,6.0,94,0.00,,---,0.00,0.00,VWS V14.00,2013-02-11 06:00:00,
2013-02-11 00:05:00,58.0,56.3,29.95,WSW,242,5.0,6.0,94,0.00,,---,0.00,0.00,VWS V14.00,2013-02-11 06:05:00,
2013-02-11 00:10:00,58.0,56.3,29.95,SW,229,0.0,6.0,94,0.00,,---,0.00,0.00,VWS V14.00,2013-02-11 06:10:00,
2013-02-11 00:15:00,57.9,56.2,29.95,SW,223,4.0,7.0,94,0.00,,---,0.00,0.00,VWS V14.00,2013-02-11 06:15:00,
2013-02-11 00:20:00,57.8,56.1,29.95,SW,234,0.0,7.0,94,0.00,,---,0.00,0.00,VWS V14.00,2013-02-11 06:20:00,
2013-02-11 00:25:00,57.7,55.7,29.96,WSW,254,0.0,7.0,93,0.00,,---,0.00,0.00,VWS V14.00,2013-02-11 06:25:00,
2013-02-11 00:30:00,57.6,55.6,29.96,WSW,254,0.0,0.0,93,0.00,,---,0.00,0.00,VWS V14.00,2013-02-11 06:30:00,
2013-02-11 00:35:00,57.5,55.5,29.96,West,268,0.0,2.0,93,0.00,,---,0.00,0.00,VWS V14.00,2013-02-11 06:35:00,
2013-02-11 00:40:00,57.3,55.3,29.96,West,260,0.0,2.0,93,0.00,,---,0.00,0.00,VWS V14.00,2013-02-11 06:40:00,
2013-02-11 00:45:00,57.2,55.2,29.96,West,267,0.0,2.0,93,0.00,,---,0.00,0.00,VWS V14.00,2013-02-11 06:45:00,
2013-02-11 00:50:00,57.0,54.7,29.96,West,265,0.0,2.0,92,0.00,,---,0.00,0.00,VWS V14.00,2013-02-11 06:50:00,
2013-02-11 00:55:00,56.8,54.5,29.97,WSW,254,0.0,2.0,92,0.00,,---,0.00,0.00,VWS V14.00,2013-02-11 06:55:00,
2013-02-11 01:00:00,56.6,54.3,29.97,WSW,254,0.0,0.0,92,0.00,,---,0.00,0.00,VWS V14.00,2013-02-11 07:00:00,
2013-02-11 01:05:00,56.3,54.0,29.97,WSW,254,0.0,0.0,92,0.00,,---,0.00,0.00,VWS V14.00,2013-02-11 07:05:00,
2013-02-11 01:10:00,56.1,53.8,29.97,WSW,254,0.0,0.0,92,0.00,,---,0.00,0.00,VWS V14.00,2013-02-11 07:10:00,
2013-02-11 01:15:00,56.0,53.4,29.97,WSW,254,0.0,0.0,91,0.00,,---,0.00,0.00,VWS V14.00,2013-02-11 07:15:00,
2013-02-11 01:20:00,55.9,53.3,29.98,WSW,254,0.0,0.0,91,0.00,,---,0.00,0.00,VWS V14.00,2013-02-11 07:20:00,
2013-02-11 01:25:00,55.5,52.9,29.97,WSW,254,0.0,0.0,91,0.00,,---,0.00,0.00,VWS V14.00,2013-02-11 07:25:00,
2013-02-11 01:30:00,55.2,52.3,29.98,WSW,254,0.0,0.0,90,0.00,,---,0.00,0.00,VWS V14.00,2013-02-11 07:30:00,
2013-02-11 01:35:00,55.0,51.8,29.98,WSW,254,0.0,0.0,89,0.00,,---,0.00,0.00,VWS V14.00,2013-02-11 07:35:00,
2013-02-11 01:40:00,54.8,51.0,29.98,WSW,254,0.0,0.0,87,0.00,,---,0.00,0.00,VWS V14.00,2013-02-11 07:40:00,
2013-02-11 01:45:00,54.8,50.7,29.98,WSW,258,0.0,0.0,86,0.00,,---,0.00,0.00,VWS V14.00,2013-02-11 07:45:00,
2013-02-11 01:50:00,54.6,50.5,29.98,WSW,258,0.0,0.0,86,0.00,,---,0.00,0.00,VWS V14.00,2013-02-11 07:50:00,
2013-02-11 01:55:00,54.4,50.3,29.98,West,269,0.0,0.0,86,0.00,,---,0.00,0.00,VWS V14.00,2013-02-11 07:55:00,
2013-02-11 02:00:00,54.1,50.0,29.98,West,269,0.0,0.0,86,0.00,,---,0.00,0.00,VWS V14.00,2013-02-11 08:00:00,
2013-02-11 02:05:00,53.9,49.8,29.98,West,269,0.0,0.0,86,0.00,,---,0.00,0.00,VWS V14.00,2013-02-11 08:05:00,
2013-02-11 02:10:00,53.5,49.4,29.98,West,269,0.0,0.0,86,0.00,,---,0.00,0.00,VWS V14.00,2013-02-11 08:10:00,
2013-02-11 02:15:00,53.2,49.1,29.98,West,269,0.0,0.0,86,0.00,,---,0.00,0.00,VWS V14.00,2013-02-11 08:15:00,
2013-02-11 02:20:00,52.8,48.7,29.98,West,269,0.0,0.0,86,0.00,,---,0.00,0.00,VWS V14.00,2013-02-11 08:20:00,
2013-02-11 02:25:00,52.4,48.3,29.99,West,269,0.0,0.0,86,0.00,,---,0.00,0.00,VWS V14.00,2013-02-11 08:25:00,
2013-02-11 02:30:00,51.9,47.8,29.99,West,269,0.0,0.0,86,0.00,,---,0.00,0.00,VWS V14.00,2013-02-11 08:30:00,
2013-02-11 02:35:00,51.4,47.4,29.99,West,269,0.0,0.0,86,0.00,,---,0.00,0.00,VWS V14.00,2013-02-11 08:35:00,
2013-02-11 02:40:00,50.9,46.9,29.99,West,269,0.0,0.0,86,0.00,,---,0.00,0.00,VWS V14.00,2013-02-11 08:40:00,
2013-02-11 02:45:00,50.6,46.6,29.99,West,269,0.0,0.0,86,0.00,,---,0.00,0.00,VWS V14.00,2013-02-11 08:45:00,
2013-02-11 02:50:00,50.7,46.7,29.99,West,269,0.0,0.0,86,0.00,,---,0.00,0.00,VWS V14.00,2013-02-11 08:50:00,
2013-02-11 02:55:00,51.1,46.8,29.99,West,273,0.0,0.0,85,0.00,,---,0.00,0.00,VWS V14.00,2013-02-11 08:55:00,
2013-02-11 03:00:00,51.7,46.7,29.99,NW,325,0.0,0.0,83,0.00,,---,0.00,0.00,VWS V14.00,2013-02-11 09:00:00,
2013-02-11 03:05:00,51.7,47.0,29.99,WNW,300,0.0,0.0,84,0.00,,---,0.00,0.00,VWS V14.00,2013-02-11 09:05:00,
2013-02-11 03:10:00,51.5,45.5,29.99,WNW,301,0.0,0.0,80,0.00,,---,0.00,0.00,VWS V14.00,2013-02-11 09:10:00,
2013-02-11 03:15:00,51.9,45.6,29.99,NW,304,0.0,1.0,79,0.00,,---,0.00,0.00,VWS V14.00,2013-02-11 09:15:00,
2013-02-11 03:20:00,52.1,45.5,29.99,NW,324,0.0,1.0,78,0.00,,---,0.00,0.00,VWS V14.00,2013-02-11 09:20:00,
2013-02-11 03:25:00,52.4,45.4,30.00,NW,316,0.0,1.0,77,0.00,,---,0.00,0.00,VWS V14.00,2013-02-11 09:25:00,
2013-02-11 03:30:00,52.6,44.2,30.00,WNW,290,0.0,4.0,73,0.00,,---,0.00,0.00,VWS V14.00,2013-02-11 09:30:00,
2013-02-11 03:35:00,52.9,43.0,30.00,NW,311,0.0,4.0,69,0.00,,---,0.00,0.00,VWS V14.00,2013-02-11 09:35:00,
2013-02-11 03:40:00,53.2,42.5,30.01,NW,308,0.0,5.0,67,0.00,,---,0.00,0.00,VWS V14.00,2013-02-11 09:40:00,
2013-02-11 03:45:00,53.2,42.9,30.01,NW,326,0.0,5.0,68,0.00,,---,0.00,0.00,VWS V14.00,2013-02-11 09:45:00,
2013-02-11 03:50:00,53.1,42.8,30.01,WNW,294,0.0,5.0,68,0.00,,---,0.00,0.00,VWS V14.00,2013-02-11 09:50:00,
2013-02-11 03:55:00,53.0,42.7,30.01,NNW,328,0.0,5.0,68,0.00,,---,0.00,0.00,VWS V14.00,2013-02-11 09:55:00,
2013-02-11 04:00:00,52.8,42.2,30.01,NNE,26,0.0,0.0,67,0.00,,---,0.00,0.00,VWS V14.00,2013-02-11 10:00:00,
2013-02-11 04:05:00,52.6,42.0,30.01,NNW,333,0.0,5.0,67,0.00,,---,0.00,0.00,VWS V14.00,2013-02-11 10:05:00,
2013-02-11 04:10:00,52.4,41.4,30.01,NW,309,0.0,5.0,66,0.00,,---,0.00,0.00,VWS V14.00,2013-02-11 10:10:00,
2013-02-11 04:15:00,52.3,41.7,30.01,WNW,303,0.0,5.0,67,0.00,,---,0.00,0.00,VWS V14.00,2013-02-11 10:15:00,
2013-02-11 04:20:00,52.1,41.1,30.01,NE,35,0.0,5.0,66,0.00,,---,0.00,0.00,VWS V14.00,2013-02-11 10:20:00,
2013-02-11 04:25:00,51.9,40.9,30.01,NW,313,0.0,5.0,66,0.00,,---,0.00,0.00,VWS V14.00,2013-02-11 10:25:00,
2013-02-11 04:30:00,51.9,40.9,30.02,NW,313,0.0,0.0,66,0.00,,---,0.00,0.00,VWS V14.00,2013-02-11 10:30:00,
2013-02-11 04:35:00,51.7,40.7,30.02,NNW,333,0.0,0.0,66,0.00,,---,0.00,0.00,VWS V14.00,2013-02-11 10:35:00,
2013-02-11 04:40:00,51.7,40.7,30.02,WNW,286,0.0,3.0,66,0.00,,---,0.00,0.00,VWS V14.00,2013-02-11 10:40:00,
2013-02-11 04:45:00,51.6,40.2,30.03,WNW,289,5.0,5.0,65,0.00,,---,0.00,0.00,VWS V14.00,2013-02-11 10:45:00,
2013-02-11 04:50:00,51.5,40.1,30.03,NW,305,0.0,5.0,65,0.00,,---,0.00,0.00,VWS V14.00,2013-02-11 10:50:00,
2013-02-11 04:55:00,51.3,40.0,30.03,NNE,26,0.0,6.0,65,0.00,,---,0.00,0.00,VWS V14.00,2013-02-11 10:55:00,
2013-02-11 05:00:00,51.2,39.8,30.04,NW,324,0.0,1.0,65,0.00,,---,0.00,0.00,VWS V14.00,2013-02-11 11:00:00,
2013-02-11 05:05:00,51.0,40.1,30.04,NW,306,0.0,1.0,66,0.00,,---,0.00,0.00,VWS V14.00,2013-02-11 11:05:00,
2013-02-11 05:10:00,50.9,40.0,30.04,NW,310,0.0,2.0,66,0.00,,---,0.00,0.00,VWS V14.00,2013-02-11 11:10:00,
2013-02-11 05:15:00,50.7,39.8,30.05,NW,319,0.0,2.0,66,0.00,,---,0.00,0.00,VWS V14.00,2013-02-11 11:15:00,
2013-02-11 05:20:00,50.6,40.1,30.05,NW,311,0.0,2.0,67,0.00,,---,0.00,0.00,VWS V14.00,2013-02-11 11:20:00,
2013-02-11 05:25:00,50.4,40.2,30.06,NW,309,0.0,2.0,68,0.00,,---,0.00,0.00,VWS V14.00,2013-02-11 11:25:00,
2013-02-11 05:30:00,50.2,39.7,30.06,NW,316,3.0,3.0,67,0.00,,---,0.00,0.00,VWS V14.00,2013-02-11 11:30:00,
2013-02-11 05:35:00,50.0,39.5,30.06,NW,324,0.0,5.0,67,0.00,,---,0.00,0.00,VWS V14.00,2013-02-11 11:35:00,
2013-02-11 05:40:00,50.0,39.1,30.06,North,355,0.0,6.0,66,0.00,,---,0.00,0.00,VWS V14.00,2013-02-11 11:40:00,
2013-02-11 05:45:00,49.9,39.0,30.06,NW,319,0.0,6.0,66,0.00,,---,0.00,0.00,VWS V14.00,2013-02-11 11:45:00,
2013-02-11 05:50:00,49.7,38.8,30.06,NW,314,0.0,10.0,66,0.00,,---,0.00,0.00,VWS V14.00,2013-02-11 11:50:00,
2013-02-11 05:55:00,49.6,38.3,30.07,NNW,330,0.0,10.0,65,0.00,,---,0.00,0.00,VWS V14.00,2013-02-11 11:55:00,
2013-02-11 06:00:00,49.4,38.1,30.07,NNW,328,0.0,0.0,65,0.00,,---,0.00,0.00,VWS V14.00,2013-02-11 12:00:00,
2013-02-11 06:05:00,49.2,38.3,30.07,NE,41,0.0,0.0,66,0.00,,---,0.00,0.00,VWS V14.00,2013-02-11 12:05:00,
2013-02-11 06:10:00,49.0,37.8,30.07,NNE,16,0.0,5.0,65,0.00,,---,0.00,0.00,VWS V14.00,2013-02-11 12:10:00,
2013-02-11 06:15:00,48.8,37.2,30.08,NNE,25,0.0,5.0,64,0.00,,---,0.00,0.00,VWS V14.00,2013-02-11 12:15:00,
2013-02-11 06:20:00,48.7,37.5,30.08,NNE,25,0.0,5.0,65,0.00,,---,0.00,0.00,VWS V14.00,2013-02-11 12:20:00,
2013-02-11 06:25:00,48.5,36.1,30.08,NNW,328,0.0,5.0,62,0.00,,---,0.00,0.00,VWS V14.00,2013-02-11 12:25:00,
2013-02-11 06:30:00,48.2,35.8,30.08,NNW,329,2.0,2.0,62,0.00,,---,0.00,0.00,VWS V14.00,2013-02-11 12:30:00,
2013-02-11 06:35:00,48.0,35.2,30.08,NNW,327,0.0,4.0,61,0.00,,---,0.00,0.00,VWS V14.00,2013-02-11 12:35:00,
2013-02-11 06:40:00,47.9,35.1,30.08,WNW,288,0.0,4.0,61,0.00,,---,0.00,0.00,VWS V14.00,2013-02-11 12:40:00,
2013-02-11 06:45:00,47.8,35.4,30.08,NE,39,0.0,5.0,62,0.00,,---,0.00,0.00,VWS V14.00,2013-02-11 12:45:00,
2013-02-11 06:50:00,47.6,35.2,30.08,NE,42,0.0,5.0,62,0.00,,---,0.00,0.00,VWS V14.00,2013-02-11 12:50:00,
2013-02-11 06:55:00,47.4,35.8,30.08,NNE,31,0.0,5.0,64,0.00,,---,0.00,0.00,VWS V14.00,2013-02-11 12:55:00,
2013-02-11 07:00:00,47.2,36.0,30.08,North,10,0.0,0.0,65,0.00,,---,0.00,0.00,VWS V14.00,2013-02-11 13:00:00,
2013-02-11 07:05:00,47.0,35.1,30.09,North,5,0.0,0.0,63,0.00,,---,0.00,7.00,VWS V14.00,2013-02-11 13:05:00,
2013-02-11 07:10:00,46.9,35.4,30.10,ENE,78,0.0,0.0,64,0.00,,---,0.00,11.00,VWS V14.00,2013-02-11 13:10:00,
2013-02-11 07:15:00,46.8,35.3,30.09,ENE,57,0.0,0.0,64,0.00,,---,0.00,19.00,VWS V14.00,2013-02-11 13:15:00,
2013-02-11 07:20:00,46.8,35.7,30.10,ENE,57,0.0,0.0,65,0.00,,---,0.00,28.00,VWS V14.00,2013-02-11 13:20:00,
2013-02-11 07:25:00,46.8,35.7,30.10,ENE,57,0.0,0.0,65,0.00,,---,0.00,28.00,VWS V14.00,2013-02-11 13:25:00,
2013-02-11 07:30:00,46.6,35.5,30.11,NE,36,0.0,0.0,65,0.00,,---,0.00,25.00,VWS V14.00,2013-02-11 13:30:00,
2013-02-11 07:35:00,46.6,35.5,30.11,NNE,30,0.0,0.0,65,0.00,,---,0.00,32.00,VWS V14.00,2013-02-11 13:35:00,
2013-02-11 07:40:00,46.6,35.5,30.11,NNE,30,0.0,0.0,65,0.00,,---,0.00,42.00,VWS V14.00,2013-02-11 13:40:00,
2013-02-11 07:45:00,46.6,35.5,30.12,NNE,30,0.0,0.0,65,0.00,,---,0.00,44.00,VWS V14.00,2013-02-11 13:45:00,
2013-02-11 07:50:00,46.7,36.7,30.12,NNE,30,0.0,0.0,68,0.00,,---,0.00,44.00,VWS V14.00,2013-02-11 13:50:00,
2013-02-11 07:55:00,46.7,36.3,30.12,NNE,30,0.0,0.0,67,0.00,,---,0.00,44.00,VWS V14.00,2013-02-11 13:55:00,
2013-02-11 08:00:00,46.6,36.2,30.13,NNE,30,0.0,0.0,67,0.00,,---,0.00,40.00,VWS V14.00,2013-02-11 14:00:00,
2013-02-11 08:05:00,46.6,36.6,30.13,NNE,30,0.0,0.0,68,0.00,,---,0.00,42.00,VWS V14.00,2013-02-11 14:05:00,
2013-02-11 08:10:00,46.6,37.0,30.14,NNE,30,0.0,0.0,69,0.00,,---,0.00,49.00,VWS V14.00,2013-02-11 14:10:00,
2013-02-11 08:15:00,46.6,37.3,30.14,NNE,30,0.0,0.0,70,0.00,,---,0.00,49.00,VWS V14.00,2013-02-11 14:15:00,
2013-02-11 08:20:00,46.7,37.1,30.14,NNE,30,0.0,0.0,69,0.00,,---,0.00,47.00,VWS V14.00,2013-02-11 14:20:00,
2013-02-11 08:25:00,46.7,37.8,30.14,NNE,30,0.0,0.0,71,0.00,,---,0.00,49.00,VWS V14.00,2013-02-11 14:25:00,
2013-02-11 08:30:00,46.7,37.1,30.13,NNE,30,0.0,0.0,69,0.00,,---,0.00,54.00,VWS V14.00,2013-02-11 14:30:00,
2013-02-11 08:35:00,46.7,36.7,30.14,NNE,30,0.0,0.0,68,0.00,,---,0.00,58.00,VWS V14.00,2013-02-11 14:35:00,
2013-02-11 08:40:00,46.7,37.5,30.14,NNE,30,0.0,0.0,70,0.00,,---,0.00,63.00,VWS V14.00,2013-02-11 14:40:00,
2013-02-11 08:45:00,46.7,36.7,30.14,NNE,30,0.0,0.0,68,0.00,,---,0.00,111.00,VWS V14.00,2013-02-11 14:45:00,
2013-02-11 08:50:00,46.8,37.5,30.13,NNE,28,0.0,0.0,70,0.00,,---,0.00,135.00,VWS V14.00,2013-02-11 14:50:00,
2013-02-11 08:55:00,47.0,37.4,30.13,NNE,29,0.0,0.0,69,0.00,,---,0.00,86.00,VWS V14.00,2013-02-11 14:55:00,
2013-02-11 09:00:00,47.1,36.0,30.13,NE,42,0.0,3.0,65,0.00,,---,0.00,72.00,VWS V14.00,2013-02-11 15:00:00,
2013-02-11 09:05:00,47.1,35.6,30.13,North,360,0.0,3.0,64,0.00,,---,0.00,90.00,VWS V14.00,2013-02-11 15:05:00,
2013-02-11 09:10:00,47.1,35.2,30.13,NNE,19,0.0,3.0,63,0.00,,---,0.00,91.00,VWS V14.00,2013-02-11 15:10:00,
2013-02-11 09:15:00,47.1,36.0,30.13,NNE,25,0.0,3.0,65,0.00,,---,0.00,105.00,VWS V14.00,2013-02-11 15:15:00,
2013-02-11 09:20:00,47.2,35.3,30.14,NNE,25,0.0,3.0,63,0.00,,---,0.00,100.00,VWS V14.00,2013-02-11 15:20:00,
2013-02-11 09:25:00,47.2,35.3,30.15,NNE,25,0.0,3.0,63,0.00,,---,0.00,107.00,VWS V14.00,2013-02-11 15:25:00,
2013-02-11 09:30:00,47.3,34.5,30.15,NNW,336,0.0,0.0,61,0.00,,---,0.00,88.00,VWS V14.00,2013-02-11 15:30:00,
2013-02-11 09:35:00,47.3,35.0,30.16,NNW,336,0.0,0.0,62,0.00,,---,0.00,105.00,VWS V14.00,2013-02-11 15:35:00,
2013-02-11 09:40:00,47.4,35.5,30.16,NNW,336,0.0,0.0,63,0.00,,---,0.00,134.00,VWS V14.00,2013-02-11 15:40:00,
2013-02-11 09:45:00,47.5,35.1,30.17,NNW,336,0.0,0.0,62,0.00,,---,0.00,105.00,VWS V14.00,2013-02-11 15:45:00,
2013-02-11 09:50:00,47.6,35.6,30.17,NNW,336,0.0,0.0,63,0.00,,---,0.00,90.00,VWS V14.00,2013-02-11 15:50:00,
2013-02-11 09:55:00,47.6,34.4,30.17,NNW,337,0.0,0.0,60,0.00,,---,0.00,88.00,VWS V14.00,2013-02-11 15:55:00,
2013-02-11 10:00:00,47.7,35.7,30.18,NNW,337,0.0,0.0,63,0.00,,---,0.00,105.00,VWS V14.00,2013-02-11 16:00:00,
2013-02-11 10:05:00,47.7,35.7,30.17,NNW,337,0.0,0.0,63,0.00,,---,0.00,118.00,VWS V14.00,2013-02-11 16:05:00,
2013-02-11 10:10:00,47.7,34.5,30.17,NNW,337,0.0,0.0,60,0.00,,---,0.00,155.00,VWS V14.00,2013-02-11 16:10:00,
2013-02-11 10:15:00,47.8,34.6,30.17,NNW,337,0.0,0.0,60,0.00,,---,0.00,190.00,VWS V14.00,2013-02-11 16:15:00,
2013-02-11 10:20:00,48.0,35.2,30.19,NNW,337,0.0,0.0,61,0.00,,---,0.00,186.00,VWS V14.00,2013-02-11 16:20:00,
2013-02-11 10:25:00,48.2,35.0,30.18,NNW,337,0.0,0.0,60,0.00,,---,0.00,199.00,VWS V14.00,2013-02-11 16:25:00,
2013-02-11 10:30:00,48.5,34.8,30.18,NNW,337,0.0,0.0,59,0.00,,---,0.00,218.00,VWS V14.00,2013-02-11 16:30:00,
2013-02-11 10:35:00,48.6,34.9,30.17,NNW,338,0.0,0.0,59,0.00,,---,0.00,239.00,VWS V14.00,2013-02-11 16:35:00,
2013-02-11 10:40:00,48.8,36.4,30.16,NNW,344,0.0,0.0,62,0.00,,---,0.00,237.00,VWS V14.00,2013-02-11 16:40:00,
2013-02-11 10:45:00,49.0,36.2,30.15,NNE,28,0.0,0.0,61,0.00,,---,0.00,209.00,VWS V14.00,2013-02-11 16:45:00,
2013-02-11 10:50:00,49.2,35.1,30.16,NE,35,0.0,1.0,58,0.00,,---,0.00,290.00,VWS V14.00,2013-02-11 16:50:00,
2013-02-11 10:55:00,49.4,35.7,30.15,NE,50,0.0,3.0,59,0.00,,---,0.00,271.00,VWS V14.00,2013-02-11 16:55:00,
2013-02-11 11:00:00,49.4,34.4,30.16,NNW,348,0.0,0.0,56,0.00,,---,0.00,262.00,VWS V14.00,2013-02-11 17:00:00,
2013-02-11 11:05:00,49.4,33.9,30.16,NNE,24,0.0,1.0,55,0.00,,---,0.00,237.00,VWS V14.00,2013-02-11 17:05:00,
2013-02-11 11:10:00,49.4,34.4,30.17,NNW,331,0.0,1.0,56,0.00,,---,0.00,264.00,VWS V14.00,2013-02-11 17:10:00,
2013-02-11 11:15:00,49.6,35.0,30.18,NNW,331,0.0,1.0,57,0.00,,---,0.00,246.00,VWS V14.00,2013-02-11 17:15:00,
2013-02-11 11:20:00,49.8,36.1,30.18,NNE,24,0.0,1.0,59,0.00,,---,0.00,244.00,VWS V14.00,2013-02-11 17:20:00,
2013-02-11 11:25:00,49.9,34.8,30.18,NNE,24,0.0,1.0,56,0.00,,---,0.00,220.00,VWS V14.00,2013-02-11 17:25:00,
2013-02-11 11:30:00,49.8,34.8,30.17,NNE,24,0.0,0.0,56,0.00,,---,0.00,248.00,VWS V14.00,2013-02-11 17:30:00,
2013-02-11 11:35:00,49.9,33.9,30.18,NNE,24,0.0,0.0,54,0.00,,---,0.00,292.00,VWS V14.00,2013-02-11 17:35:00,
2013-02-11 11:40:00,50.0,34.9,30.18,NNE,24,0.0,0.0,56,0.00,,---,0.00,309.00,VWS V14.00,2013-02-11 17:40:00,
2013-02-11 11:45:00,50.1,35.0,30.17,NNE,28,0.0,0.0,56,0.00,,---,0.00,360.00,VWS V14.00,2013-02-11 17:45:00,
2013-02-11 11:50:00,50.2,36.4,30.17,ESE,119,0.0,1.0,59,0.00,,---,0.00,381.00,VWS V14.00,2013-02-11 17:50:00,
2013-02-11 11:55:00,50.5,35.8,30.17,ESE,121,0.0,1.0,57,0.00,,---,0.00,343.00,VWS V14.00,2013-02-11 17:55:00,
2013-02-11 12:00:00,50.8,36.6,30.17,NW,315,0.0,5.0,58,0.00,,---,0.00,410.00,VWS V14.00,2013-02-11 18:00:00,
2013-02-11 12:05:00,51.0,35.4,30.16,NNW,328,0.0,5.0,55,0.00,,---,0.00,359.00,VWS V14.00,2013-02-11 18:05:00,
2013-02-11 12:10:00,51.0,34.5,30.16,NW,317,0.0,5.0,53,0.00,,---,0.00,360.00,VWS V14.00,2013-02-11 18:10:00,
2013-02-11 12:15:00,51.3,36.2,30.16,NW,319,0.0,5.0,56,0.00,,---,0.00,642.00,VWS V14.00,2013-02-11 18:15:00,
2013-02-11 12:20:00,51.7,36.5,30.16,NW,319,0.0,5.0,56,0.00,,---,0.00,747.00,VWS V14.00,2013-02-11 18:20:00,
2013-02-11 12:25:00,52.5,38.2,30.16,SE,145,0.0,5.0,58,0.00,,---,0.00,766.00,VWS V14.00,2013-02-11 18:25:00,
2013-02-11 12:30:00,53.0,36.3,30.16,NNE,30,0.0,0.0,53,0.00,,---,0.00,691.00,VWS V14.00,2013-02-11 18:30:00,
2013-02-11 12:35:00,53.0,36.3,30.15,ENE,58,0.0,2.0,53,0.00,,---,0.00,671.00,VWS V14.00,2013-02-11 18:35:00,
2013-02-11 12:40:00,53.3,36.6,30.15,WSW,257,0.0,2.0,53,0.00,,---,0.00,534.00,VWS V14.00,2013-02-11 18:40:00,
2013-02-11 12:45:00,53.9,37.7,30.14,NE,48,0.0,3.0,54,0.00,,---,0.00,768.00,VWS V14.00,2013-02-11 18:45:00,
2013-02-11 12:50:00,54.3,37.5,30.13,ESE,123,0.0,3.0,53,0.00,,---,0.00,726.00,VWS V14.00,2013-02-11 18:50:00,
2013-02-11 12:55:00,54.8,37.5,30.13,East,85,0.0,3.0,52,0.00,,---,0.00,715.00,VWS V14.00,2013-02-11 18:55:00,
2013-02-11 13:00:00,55.2,37.9,30.13,SE,141,0.0,0.0,52,0.00,,---,0.00,708.00,VWS V14.00,2013-02-11 19:00:00,
2013-02-11 13:05:00,55.7,36.8,30.13,SW,215,1.0,5.0,49,0.00,,---,0.00,705.00,VWS V14.00,2013-02-11 19:05:00,
2013-02-11 13:10:00,55.8,36.9,30.13,SW,219,0.0,5.0,49,0.00,,---,0.00,705.00,VWS V14.00,2013-02-11 19:10:00,
2013-02-11 13:15:00,55.7,36.8,30.13,WSW,242,0.0,6.0,49,0.00,,---,0.00,712.00,VWS V14.00,2013-02-11 19:15:00,
2013-02-11 13:20:00,55.4,36.1,30.14,WSW,242,0.0,6.0,48,0.00,,---,0.00,209.00,VWS V14.00,2013-02-11 19:20:00,
2013-02-11 13:25:00,55.2,35.3,30.13,WSW,242,0.0,6.0,47,0.00,,---,0.00,255.00,VWS V14.00,2013-02-11 19:25:00,
2013-02-11 13:30:00,55.1,36.8,30.12,WSW,243,0.0,0.0,50,0.00,,---,0.00,737.00,VWS V14.00,2013-02-11 19:30:00,
2013-02-11 13:35:00,55.4,35.5,30.12,West,280,0.0,4.0,47,0.00,,---,0.00,679.00,VWS V14.00,2013-02-11 19:35:00,
2013-02-11 13:40:00,56.0,36.6,30.12,WNW,301,0.0,4.0,48,0.00,,---,0.00,664.00,VWS V14.00,2013-02-11 19:40:00,
2013-02-11 13:45:00,56.1,37.2,30.12,ENE,61,0.0,4.0,49,0.00,,---,0.00,656.00,VWS V14.00,2013-02-11 19:45:00,
2013-02-11 13:50:00,56.7,37.2,30.12,ENE,61,3.0,4.0,48,0.00,,---,0.00,645.00,VWS V14.00,2013-02-11 19:50:00,
2013-02-11 13:55:00,56.9,36.3,30.11,NE,46,0.0,4.0,46,0.00,,---,0.00,636.00,VWS V14.00,2013-02-11 19:55:00,
2013-02-11 14:00:00,56.9,35.8,30.11,NE,48,0.0,1.0,45,0.00,,---,0.00,631.00,VWS V14.00,2013-02-11 20:00:00,
2013-02-11 14:05:00,57.3,36.7,30.11,West,267,1.0,6.0,46,0.00,,---,0.00,621.00,VWS V14.00,2013-02-11 20:05:00,
2013-02-11 14:10:00,57.3,35.0,30.11,NNE,24,1.0,6.0,43,0.00,,---,0.00,610.00,VWS V14.00,2013-02-11 20:10:00,
2013-02-11 14:15:00,57.5,37.5,30.11,WSW,256,2.0,6.0,47,0.00,,---,0.00,598.00,VWS V14.00,2013-02-11 20:15:00,
2013-02-11 14:20:00,57.8,36.6,30.10,WSW,257,0.0,6.0,45,0.00,,---,0.00,587.00,VWS V14.00,2013-02-11 20:20:00,
2013-02-11 14:25:00,57.9,35.6,30.10,NNW,327,1.0,6.0,43,0.00,,---,0.00,580.00,VWS V14.00,2013-02-11 20:25:00,
2013-02-11 14:30:00,57.7,33.6,30.10,NE,53,0.0,0.0,40,0.00,,---,0.00,566.00,VWS V14.00,2013-02-11 20:30:00,
2013-02-11 14:35:00,57.5,35.2,30.10,NE,56,0.0,1.0,43,0.00,,---,0.00,554.00,VWS V14.00,2013-02-11 20:35:00,
2013-02-11 14:40:00,57.7,34.2,30.11,NW,317,0.0,3.0,41,0.00,,---,0.00,541.00,VWS V14.00,2013-02-11 20:40:00,
2013-02-11 14:45:00,57.8,33.7,30.11,NNE,30,0.0,3.0,40,0.00,,---,0.00,529.00,VWS V14.00,2013-02-11 20:45:00,
2013-02-11 14:50:00,57.9,35.0,30.11,NNE,32,0.0,3.0,42,0.00,,---,0.00,527.00,VWS V14.00,2013-02-11 20:50:00,
2013-02-11 14:55:00,57.7,33.6,30.11,North,360,0.0,3.0,40,0.00,,---,0.00,508.00,VWS V14.00,2013-02-11 20:55:00,
2013-02-11 15:00:00,57.8,34.9,30.10,NE,43,2.0,4.0,42,0.00,,---,0.00,497.00,VWS V14.00,2013-02-11 21:00:00,
2013-02-11 15:05:00,57.9,36.1,30.09,ESE,102,2.0,4.0,44,0.00,,---,0.00,483.00,VWS V14.00,2013-02-11 21:05:00,
2013-02-11 15:10:00,58.4,35.4,30.08,East,100,0.0,4.0,42,0.00,,---,0.00,466.00,VWS V14.00,2013-02-11 21:10:00,
2013-02-11 15:15:00,59.2,36.1,30.09,SE,137,0.0,4.0,42,0.00,,---,0.00,450.00,VWS V14.00,2013-02-11 21:15:00,
2013-02-11 15:20:00,59.7,35.4,30.10,NNE,27,0.0,6.0,40,0.00,,---,0.00,434.00,VWS V14.00,2013-02-11 21:20:00,
2013-02-11 15:25:00,59.9,34.9,30.09,SSE,148,0.0,6.0,39,0.00,,---,0.00,432.00,VWS V14.00,2013-02-11 21:25:00,
2013-02-11 15:30:00,59.4,35.7,30.08,SSE,150,0.0,0.0,41,0.00,,---,0.00,387.00,VWS V14.00,2013-02-11 21:30:00,
2013-02-11 15:35:00,59.4,35.7,30.09,SSE,148,0.0,0.0,41,0.00,,---,0.00,411.00,VWS V14.00,2013-02-11 21:35:00,
2013-02-11 15:40:00,59.4,34.5,30.08,ENE,61,0.0,3.0,39,0.00,,---,0.00,378.00,VWS V14.00,2013-02-11 21:40:00,
2013-02-11 15:45:00,59.1,36.0,30.08,NE,50,0.0,4.0,42,0.00,,---,0.00,376.00,VWS V14.00,2013-02-11 21:45:00,
2013-02-11 15:50:00,58.7,33.8,30.08,NE,45,0.0,4.0,39,0.00,,---,0.00,121.00,VWS V14.00,2013-02-11 21:50:00,
2013-02-11 15:55:00,58.3,35.9,30.09,NE,45,0.0,4.0,43,0.00,,---,0.00,171.00,VWS V14.00,2013-02-11 21:55:00,
2013-02-11 16:00:00,58.1,35.2,30.09,NE,45,0.0,0.0,42,0.00,,---,0.00,111.00,VWS V14.00,2013-02-11 22:00:00,
2013-02-11 16:05:00,57.7,35.4,30.09,NNW,342,0.0,0.0,43,0.00,,---,0.00,125.00,VWS V14.00,2013-02-11 22:05:00,
2013-02-11 16:10:00,57.5,34.6,30.08,NNW,345,0.0,0.0,42,0.00,,---,0.00,107.00,VWS V14.00,2013-02-11 22:10:00,
2013-02-11 16:15:00,57.3,35.0,30.08,NNW,346,0.0,0.0,43,0.00,,---,0.00,120.00,VWS V14.00,2013-02-11 22:15:00,
2013-02-11 16:20:00,57.3,36.2,30.08,NNW,328,0.0,0.0,45,0.00,,---,0.00,100.00,VWS V14.00,2013-02-11 22:20:00,
2013-02-11 16:25:00,57.4,36.2,30.08,NNW,328,0.0,0.0,45,0.00,,---,0.00,83.00,VWS V14.00,2013-02-11 22:25:00,
2013-02-11 16:30:00,57.4,35.7,30.09,NNW,329,0.0,0.0,44,0.00,,---,0.00,72.00,VWS V14.00,2013-02-11 22:30:00,
2013-02-11 16:35:00,57.5,35.8,30.09,NNW,329,0.0,0.0,44,0.00,,---,0.00,62.00,VWS V14.00,2013-02-11 22:35:00,
2013-02-11 16:40:00,57.4,35.1,30.09,NNW,329,0.0,0.0,43,0.00,,---,0.00,65.00,VWS V14.00,2013-02-11 22:40:00,
2013-02-11 16:45:00,57.1,34.8,30.09,NNW,329,0.0,0.0,43,0.00,,---,0.00,62.00,VWS V14.00,2013-02-11 22:45:00,
2013-02-11 16:50:00,57.0,36.4,30.08,NNW,329,0.0,0.0,46,0.00,,---,0.00,69.00,VWS V14.00,2013-02-11 22:50:00,
2013-02-11 16:55:00,56.9,36.9,30.08,NNW,329,0.0,0.0,47,0.00,,---,0.00,67.00,VWS V14.00,2013-02-11 22:55:00,
2013-02-11 17:00:00,56.9,38.5,30.08,NNW,329,0.0,0.0,50,0.00,,---,0.00,53.00,VWS V14.00,2013-02-11 23:00:00,
2013-02-11 17:05:00,56.5,38.1,30.08,NNW,329,0.0,0.0,50,0.00,,---,0.00,37.00,VWS V14.00,2013-02-11 23:05:00,
2013-02-11 17:10:00,55.9,38.5,30.09,SW,236,0.0,0.0,52,0.00,,---,0.00,28.00,VWS V14.00,2013-02-11 23:10:00,
2013-02-11 17:15:00,55.4,38.6,30.08,SW,236,0.0,0.0,53,0.00,,---,0.00,19.00,VWS V14.00,2013-02-11 23:15:00,
2013-02-11 17:20:00,55.0,38.2,30.08,SW,236,0.0,0.0,53,0.00,,---,0.00,19.00,VWS V14.00,2013-02-11 23:20:00,
2013-02-11 17:25:00,54.8,38.0,30.08,SW,236,0.0,0.0,53,0.00,,---,0.00,21.00,VWS V14.00,2013-02-11 23:25:00,
2013-02-11 17:30:00,54.7,40.2,30.07,SW,236,0.0,0.0,58,0.00,,---,0.00,16.00,VWS V14.00,2013-02-11 23:30:00,
2013-02-11 17:35:00,54.3,39.4,30.07,SW,236,0.0,0.0,57,0.00,,---,0.00,7.00,VWS V14.00,2013-02-11 23:35:00,
2013-02-11 17:40:00,54.0,38.7,30.07,SW,236,0.0,0.0,56,0.00,,---,0.00,0.00,VWS V14.00,2013-02-11 23:40:00,
2013-02-11 17:45:00,53.8,38.9,30.07,SW,236,0.0,0.0,57,0.00,,---,0.00,0.00,VWS V14.00,2013-02-11 23:45:00,
2013-02-11 17:50:00,53.6,38.8,30.07,SW,236,0.0,0.0,57,0.00,,---,0.00,0.00,VWS V14.00,2013-02-11 23:50:00,
2013-02-11 17:55:00,53.5,40.0,30.08,SW,236,0.0,0.0,60,0.00,,---,0.00,0.00,VWS V14.00,2013-02-11 23:55:00,
2013-02-11 18:00:00,53.1,40.0,30.08,SW,236,0.0,0.0,61,0.00,,---,0.00,0.00,VWS V14.00,2013-02-12 00:00:00,
2013-02-11 18:05:00,52.8,39.3,30.09,SW,236,0.0,0.0,60,0.00,,---,0.00,0.00,VWS V14.00,2013-02-12 00:05:00,
2013-02-11 18:10:00,52.6,41.6,30.10,SW,236,0.0,0.0,66,0.00,,---,0.00,0.00,VWS V14.00,2013-02-12 00:10:00,
2013-02-11 18:15:00,52.2,40.4,30.10,SW,236,0.0,0.0,64,0.00,,---,0.00,0.00,VWS V14.00,2013-02-12 00:15:00,
2013-02-11 18:20:00,52.0,39.0,30.10,WSW,238,0.0,0.0,61,0.00,,---,0.00,0.00,VWS V14.00,2013-02-12 00:20:00,
2013-02-11 18:25:00,52.0,37.7,30.10,WSW,252,0.0,0.0,58,0.00,,---,0.00,0.00,VWS V14.00,2013-02-12 00:25:00,
2013-02-11 18:30:00,52.1,39.5,30.10,WSW,252,0.0,0.0,62,0.00,,---,0.00,0.00,VWS V14.00,2013-02-12 00:30:00,
2013-02-11 18:35:00,52.0,39.4,30.09,WSW,251,0.0,0.0,62,0.00,,---,0.00,0.00,VWS V14.00,2013-02-12 00:35:00,
2013-02-11 18:40:00,51.8,38.8,30.09,WSW,252,0.0,0.0,61,0.00,,---,0.00,0.00,VWS V14.00,2013-02-12 00:40:00,
2013-02-11 18:45:00,51.7,38.3,30.08,WSW,252,0.0,0.0,60,0.00,,---,0.00,0.00,VWS V14.00,2013-02-12 00:45:00,
2013-02-11 18:50:00,51.5,38.5,30.07,WSW,252,0.0,0.0,61,0.00,,---,0.00,0.00,VWS V14.00,2013-02-12 00:50:00,
2013-02-11 18:55:00,51.3,37.9,30.08,WSW,252,0.0,0.0,60,0.00,,---,0.00,0.00,VWS V14.00,2013-02-12 00:55:00,
2013-02-11 19:00:00,51.2,39.8,30.10,WSW,252,0.0,0.0,65,0.00,,---,0.00,0.00,VWS V14.00,2013-02-12 01:00:00,
2013-02-11 19:05:00,50.9,39.2,30.12,WSW,252,0.0,0.0,64,0.00,,---,0.00,0.00,VWS V14.00,2013-02-12 01:05:00,
2013-02-11 19:10:00,50.6,38.9,30.13,WSW,252,0.0,0.0,64,0.00,,---,0.00,0.00,VWS V14.00,2013-02-12 01:10:00,
2013-02-11 19:15:00,50.5,38.0,30.13,WSW,252,0.0,0.0,62,0.00,,---,0.00,0.00,VWS V14.00,2013-02-12 01:15:00,
2013-02-11 19:20:00,50.5,37.6,30.13,WSW,252,0.0,0.0,61,0.00,,---,0.00,0.00,VWS V14.00,2013-02-12 01:20:00,
2013-02-11 19:25:00,50.7,37.8,30.13,WSW,252,0.0,0.0,61,0.00,,---,0.00,0.00,VWS V14.00,2013-02-12 01:25:00,
2013-02-11 19:30:00,50.8,40.2,30.12,WSW,252,0.0,0.0,67,0.00,,---,0.00,0.00,VWS V14.00,2013-02-12 01:30:00,
2013-02-11 19:35:00,50.6,38.9,30.12,WSW,252,0.0,0.0,64,0.00,,---,0.00,0.00,VWS V14.00,2013-02-12 01:35:00,
2013-02-11 19:40:00,50.5,38.4,30.12,WSW,251,0.0,0.0,63,0.00,,---,0.00,0.00,VWS V14.00,2013-02-12 01:40:00,
2013-02-11 19:45:00,50.2,39.7,30.11,WSW,252,0.0,0.0,67,0.00,,---,0.00,0.00,VWS V14.00,2013-02-12 01:45:00,
2013-02-11 19:50:00,49.9,37.8,30.11,WSW,252,0.0,0.0,63,0.00,,---,0.00,0.00,VWS V14.00,2013-02-12 01:50:00,
2013-02-11 19:55:00,49.7,37.6,30.11,WSW,252,0.0,0.0,63,0.00,,---,0.00,0.00,VWS V14.00,2013-02-12 01:55:00,
2013-02-11 20:00:00,49.5,37.8,30.11,WSW,252,0.0,0.0,64,0.00,,---,0.00,0.00,VWS V14.00,2013-02-12 02:00:00,
2013-02-11 20:05:00,49.3,38.4,30.11,WSW,252,0.0,0.0,66,0.00,,---,0.00,0.00,VWS V14.00,2013-02-12 02:05:00,
2013-02-11 20:10:00,49.2,38.0,30.12,WSW,252,0.0,0.0,65,0.00,,---,0.00,0.00,VWS V14.00,2013-02-12 02:10:00,
2013-02-11 20:15:00,49.1,39.4,30.13,WSW,252,0.0,0.0,69,0.00,,---,0.00,0.00,VWS V14.00,2013-02-12 02:15:00,
2013-02-11 20:20:00,49.0,39.3,30.14,WSW,252,0.0,0.0,69,0.00,,---,0.00,0.00,VWS V14.00,2013-02-12 02:20:00,
2013-02-11 20:25:00,48.9,38.1,30.14,WSW,252,0.0,0.0,66,0.00,,---,0.00,0.00,VWS V14.00,2013-02-12 02:25:00,
2013-02-11 20:30:00,48.9,39.9,30.14,WSW,252,0.0,0.0,71,0.00,,---,0.00,0.00,VWS V14.00,2013-02-12 02:30:00,
2013-02-11 20:35:00,48.9,40.3,30.14,WSW,252,0.0,0.0,72,0.00,,---,0.00,0.00,VWS V14.00,2013-02-12 02:35:00,
2013-02-11 20:40:00,48.8,40.2,30.13,WSW,252,0.0,0.0,72,0.00,,---,0.00,0.00,VWS V14.00,2013-02-12 02:40:00,
2013-02-11 20:45:00,48.7,41.8,30.13,WSW,252,0.0,0.0,77,0.00,,---,0.00,0.00,VWS V14.00,2013-02-12 02:45:00,
2013-02-11 20:50:00,48.3,38.2,30.12,WSW,252,0.0,0.0,68,0.00,,---,0.00,0.00,VWS V14.00,2013-02-12 02:50:00,
2013-02-11 20:55:00,48.3,38.2,30.11,WSW,252,0.0,0.0,68,0.00,,---,0.00,0.00,VWS V14.00,2013-02-12 02:55:00,
2013-02-11 21:00:00,48.5,38.4,30.12,WSW,252,0.0,0.0,68,0.00,,---,0.00,0.00,VWS V14.00,2013-02-12 03:00:00,
2013-02-11 21:05:00,48.7,38.6,30.11,WSW,252,0.0,0.0,68,0.00,,---,0.00,0.00,VWS V14.00,2013-02-12 03:05:00,
2013-02-11 21:10:00,48.7,39.4,30.11,WSW,252,0.0,0.0,70,0.00,,---,0.00,0.00,VWS V14.00,2013-02-12 03:10:00,
2013-02-11 21:15:00,48.7,39.0,30.11,WSW,252,0.0,0.0,69,0.00,,---,0.00,0.00,VWS V14.00,2013-02-12 03:15:00,
2013-02-11 21:20:00,48.6,38.2,30.10,WSW,252,0.0,0.0,67,0.00,,---,0.00,0.00,VWS V14.00,2013-02-12 03:20:00,
2013-02-11 21:25:00,48.7,37.9,30.11,WSW,258,0.0,0.0,66,0.00,,---,0.00,0.00,VWS V14.00,2013-02-12 03:25:00,
2013-02-11 21:30:00,48.7,37.5,30.10,WSW,258,0.0,0.0,65,0.00,,---,0.00,0.00,VWS V14.00,2013-02-12 03:30:00,
2013-02-11 21:35:00,48.8,37.6,30.10,WSW,258,0.0,0.0,65,0.00,,---,0.00,0.00,VWS V14.00,2013-02-12 03:35:00,
2013-02-11 21:40:00,48.9,37.7,30.11,WSW,258,0.0,0.0,65,0.00,,---,0.00,0.00,VWS V14.00,2013-02-12 03:40:00,
2013-02-11 21:45:00,48.9,37.7,30.11,WSW,258,0.0,0.0,65,0.00,,---,0.00,0.00,VWS V14.00,2013-02-12 03:45:00,
2013-02-11 21:50:00,48.9,38.1,30.11,WSW,258,0.0,0.0,66,0.00,,---,0.00,0.00,VWS V14.00,2013-02-12 03:50:00,
2013-02-11 21:55:00,48.8,38.0,30.11,WSW,258,0.0,0.0,66,0.00,,---,0.00,0.00,VWS V14.00,2013-02-12 03:55:00,
2013-02-11 22:00:00,48.7,38.6,30.12,WSW,258,0.0,0.0,68,0.00,,---,0.00,0.00,VWS V14.00,2013-02-12 04:00:00,
2013-02-11 22:05:00,48.6,38.2,30.12,WSW,258,0.0,0.0,67,0.00,,---,0.00,0.00,VWS V14.00,2013-02-12 04:05:00,
2013-02-11 22:10:00,48.4,38.7,30.12,WSW,258,0.0,0.0,69,0.00,,---,0.00,0.00,VWS V14.00,2013-02-12 04:10:00,
2013-02-11 22:15:00,48.3,38.6,30.13,WSW,258,0.0,0.0,69,0.00,,---,0.00,0.00,VWS V14.00,2013-02-12 04:15:00,
2013-02-11 22:20:00,48.1,39.5,30.14,WSW,258,0.0,0.0,72,0.00,,---,0.00,0.00,VWS V14.00,2013-02-12 04:20:00,
2013-02-11 22:25:00,47.7,39.1,30.14,WSW,258,0.0,0.0,72,0.00,,---,0.00,0.00,VWS V14.00,2013-02-12 04:25:00,
2013-02-11 22:30:00,47.3,38.7,30.14,WSW,258,0.0,0.0,72,0.00,,---,0.00,0.00,VWS V14.00,2013-02-12 04:30:00,
2013-02-11 22:35:00,47.0,38.1,30.14,WSW,258,0.0,0.0,71,0.00,,---,0.00,0.00,VWS V14.00,2013-02-12 04:35:00,
2013-02-11 22:40:00,46.9,38.7,30.15,WSW,258,0.0,0.0,73,0.00,,---,0.00,0.00,VWS V14.00,2013-02-12 04:40:00,
2013-02-11 22:45:00,46.9,39.1,30.14,WSW,258,0.0,0.0,74,0.00,,---,0.00,0.00,VWS V14.00,2013-02-12 04:45:00,
2013-02-11 22:50:00,46.9,39.1,30.13,WSW,258,0.0,0.0,74,0.00,,---,0.00,0.00,VWS V14.00,2013-02-12 04:50:00,
2013-02-11 22:55:00,46.8,39.3,30.13,WSW,258,0.0,0.0,75,0.00,,---,0.00,0.00,VWS V14.00,2013-02-12 04:55:00,
2013-02-11 23:00:00,46.7,39.2,30.12,WSW,258,0.0,0.0,75,0.00,,---,0.00,0.00,VWS V14.00,2013-02-12 05:00:00,
2013-02-11 23:05:00,46.7,39.2,30.13,WSW,258,0.0,0.0,75,0.00,,---,0.00,0.00,VWS V14.00,2013-02-12 05:05:00,
2013-02-11 23:10:00,46.6,39.8,30.12,WSW,258,0.0,0.0,77,0.00,,---,0.00,0.00,VWS V14.00,2013-02-12 05:10:00,
2013-02-11 23:15:00,46.5,39.0,30.13,WSW,258,0.0,0.0,75,0.00,,---,0.00,0.00,VWS V14.00,2013-02-12 05:15:00,
2013-02-11 23:20:00,46.3,39.2,30.14,WSW,258,0.0,0.0,76,0.00,,---,0.00,0.00,VWS V14.00,2013-02-12 05:20:00,
2013-02-11 23:25:00,46.3,39.8,30.14,WSW,258,0.0,0.0,78,0.00,,---,0.00,0.00,VWS V14.00,2013-02-12 05:25:00,
2013-02-11 23:30:00,46.1,39.3,30.14,WSW,258,0.0,0.0,77,0.00,,---,0.00,0.00,VWS V14.00,2013-02-12 05:30:00,
2013-02-11 23:35:00,46.0,39.9,30.13,WSW,258,0.0,0.0,79,0.00,,---,0.00,0.00,VWS V14.00,2013-02-12 05:35:00,
2013-02-11 23:40:00,45.9,39.4,30.13,WSW,258,0.0,0.0,78,0.00,,---,0.00,0.00,VWS V14.00,2013-02-12 05:40:00,
2013-02-11 23:45:00,45.9,39.4,30.14,WSW,258,0.0,0.0,78,0.00,,---,0.00,0.00,VWS V14.00,2013-02-12 05:45:00,
2013-02-11 23:50:00,45.9,39.8,30.13,WSW,258,0.0,0.0,79,0.00,,---,0.00,0.00,VWS V14.00,2013-02-12 05:50:00,
2013-02-11 23:55:00,45.9,40.1,30.13,WSW,258,0.0,0.0,80,0.00,,---,0.00,0.00,VWS V14.00,2013-02-12 05:55:00,